W4SNA-4 Weather Reports


Display with metric or nautical units.
time (UTC)temp
F
wind
direction
speed
MPH
gust
MPH
rain 1hr
in
rain 24hr
in
rain mn
in
humidity
%
barometer
mb
20260507054139 63 0 0.0 0.0 0.00 0.28 0.00 97 1007.4
20260507053642 63 0 0.0 0.0 0.00 0.28 0.00 97 1007.4
20260507053137 63 0 0.0 0.0 0.00 0.28 0.00 97 1007.4
20260507052336 63 0 0.0 0.0 0.00 0.28 0.00 97 1007.6
20260507051842 63 0 0.0 0.0 0.01 0.28 0.00 97 1007.6
20260507051337 63 0 0.0 0.0 0.01 0.28 0.00 97 1007.6
20260507050837 63 0 0.0 0.0 0.01 0.28 0.28 97 1007.7
20260507050337 63 0 0.0 0.0 0.01 0.28 0.28 97 1007.7
20260507045836 63 0 0.0 0.0 0.01 0.28 0.28 97 1007.7
20260507045336 63 0 0.0 0.0 0.01 0.28 0.28 97 1007.5
20260507044908 63 0 0.0 0.0 0.01 0.28 0.28 97 1007.5
20260507044837 63 0 0.0 0.0 0.01 0.28 0.28 97 1007.5
20260507044410 63 0 0.0 0.0 0.01 0.28 0.28 97 1007.5
20260507044337 63 0 0.0 0.0 0.01 0.28 0.28 97 1007.5
20260507043836 63 0 0.0 0.0 0.01 0.28 0.28 97 1007.0
20260507043337 63 0 0.0 0.0 0.01 0.28 0.28 97 1007.0
20260507042837 63 0 0.0 0.0 0.01 0.28 0.28 97 1007.0
20260507042336 63 0 0.0 0.0 0.01 0.28 0.28 97 1007.7
20260507041837 63 0 0.0 0.0 0.01 0.27 0.27 97 1007.7
20260507041337 63 0 0.0 0.0 0.01 0.27 0.27 96 1007.7
20260507040837 63 0 0.0 0.0 0.03 0.27 0.27 96 1007.7
20260507040337 63 0 0.0 0.0 0.04 0.27 0.27 96 1007.7
20260507035828 63 0 0.0 0.0 0.05 0.27 0.27 96 1007.7
20260507035318 63 0 0.0 0.0 0.06 0.27 0.27 96 1006.5
20260507034812 63 0 0.0 0.0 0.06 0.27 0.27 96 1006.5
20260507034310 63 0 0.0 0.0 0.07 0.27 0.27 96 1006.5
20260507033810 63 0 0.0 0.0 0.08 0.27 0.27 96 1005.6
20260507033310 63 0 0.0 0.0 0.09 0.27 0.27 96 1005.6
20260507032827 63 0 0.0 0.0 0.11 0.27 0.27 96 1005.6
20260507032309 63 0 0.0 0.0 0.12 0.27 0.27 95 1008.1
20260507031816 63 0 0.0 0.0 0.12 0.26 0.26 95 1008.1
20260507031313 63 0 0.0 0.0 0.12 0.26 0.26 95 1008.1
20260507030810 63 0 0.0 0.0 0.11 0.24 0.24 95 1009.1
20260507030311 63 0 0.0 0.0 0.12 0.23 0.23 95 1009.1
20260507025829 63 0 0.0 0.0 0.12 0.22 0.22 95 1009.1
20260507025310 63 0 0.0 0.0 0.12 0.21 0.21 95 1008.1
20260507024813 63 0 0.0 0.0 0.13 0.21 0.21 95 1008.1
20260507024311 63 0 0.0 0.0 0.12 0.20 0.20 94 1008.1
20260507023810 64 0 0.0 0.0 0.12 0.19 0.19 95 1008.5
20260507023312 64 0 0.0 0.0 0.11 0.18 0.18 94 1008.5
20260507022830 64 0 0.0 0.0 0.09 0.16 0.16 94 1008.5
20260507022311 64 0 0.0 0.0 0.08 0.15 0.15 94 1008.0
20260507021810 64 0 0.0 0.0 0.08 0.14 0.14 94 1008.0
20260507021310 64 0 0.0 1.0 0.08 0.14 0.14 94 1008.0
20260507020810 64 0 0.0 1.0 0.08 0.13 0.13 93 1008.1
20260507020310 65 0 0.0 1.0 0.06 0.11 0.11 93 1008.1
20260507015826 65 0 0.0 1.0 0.05 0.10 0.10 93 1008.1
20260507015316 65 0 0.0 0.0 0.04 0.09 0.09 93 1007.5
20260507014814 65 0 0.0 0.0 0.03 0.08 0.08 92 1007.5
20260507014309 65 0 0.0 0.0 0.03 0.08 0.08 92 1007.5
20260507013810 66 0 0.0 0.0 0.02 0.07 0.07 92 1007.3
20260507013310 66 0 0.0 0.0 0.02 0.07 0.07 92 1007.3
20260507012809 66 0 0.0 0.0 0.02 0.07 0.07 92 1007.3
20260507012310 67 0 0.0 0.0 0.02 0.07 0.07 92 1006.9
20260507011820 67 0 0.0 1.0 0.01 0.06 0.06 92 1006.9
20260507011309 67 0 0.0 1.0 0.01 0.06 0.06 92 1006.9
20260507010810 67 0 0.0 0.0 0.00 0.05 0.05 91 1007.1
20260507010310 68 0 0.0 0.0 0.00 0.05 0.05 91 1007.1
20260507005809 68 0 0.0 1.0 0.00 0.05 0.05 91 1007.1
20260507005310 68 0 0.0 1.0 0.00 0.05 0.05 91 1007.2
20260507004811 68 0 0.0 0.0 0.00 0.05 0.05 91 1007.2
20260507004317 68 0 0.0 0.0 0.00 0.05 0.05 91 1007.2
20260507003810 68 0 0.0 0.0 0.00 0.05 0.05 91 1007.2
20260507003112 69 0 0.0 0.0 0.00 0.05 0.05 91 1007.2
20260507002425 69 0 0.0 2.0 0.00 0.05 0.05 91 1006.9
20260507001926 69 0 0.0 2.0 0.00 0.05 0.05 91 1006.9
20260507001422 69 0 0.0 0.0 0.00 0.05 0.05 91 1006.9
20260507000900 69 0 0.0 0.0 0.00 0.05 0.05 90 1006.9
20260507000401 69 0 0.0 0.0 0.00 0.05 0.05 90 1006.9
20260506235859 69 0 0.0 0.0 0.00 0.05 0.05 90 1006.9
20260506235359 69 0 0.0 0.0 0.00 0.05 0.05 89 1006.9
20260506234859 69 0 0.0 0.0 0.00 0.05 0.05 88 1006.9
20260506234359 70 0 0.0 0.0 0.00 0.05 0.05 88 1006.9
20260506233902 70 0 0.0 0.0 0.00 0.05 0.05 87 1006.8
20260506233358 70 0 0.0 0.0 0.00 0.05 0.05 87 1006.8
20260506232902 70 0 0.0 0.0 0.00 0.05 0.05 86 1006.8
20260506232107 70 0 0.0 0.0 0.00 0.05 0.05 86 1006.9
20260506231607 70 0 0.0 0.0 0.00 0.05 0.05 85 1006.9
20260506231107 70 0 0.0 0.0 0.00 0.05 0.05 86 1006.9
20260506230607 70 0 0.0 0.0 0.00 0.05 0.05 85 1006.9
20260506230104 70 0 0.0 0.0 0.00 0.05 0.05 86 1006.9
20260506225607 70 0 0.0 0.0 0.00 0.05 0.05 85 1006.9
20260506225112 70 0 0.0 0.0 0.00 0.05 0.05 84 1007.4
20260506224606 71 0 0.0 0.0 0.00 0.05 0.05 84 1007.4
20260506224107 71 0 0.0 0.0 0.00 0.05 0.05 84 1007.4
20260506223213 71 0 0.0 0.0 0.00 0.05 0.05 84 1007.0
20260506222709 71 0 0.0 0.0 0.00 0.05 0.05 84 1007.0
20260506222210 71 0 0.0 0.0 0.00 0.05 0.05 84 1007.4
20260506221710 71 0 0.0 0.0 0.00 0.05 0.05 84 1007.4
20260506221212 71 0 0.0 0.0 0.00 0.05 0.05 84 1007.4
20260506220711 71 0 0.0 0.0 0.00 0.05 0.05 84 1007.4
20260506220209 71 0 0.0 0.0 0.00 0.05 0.05 85 1007.4
20260506215355 71 0 0.0 0.0 0.00 0.05 0.05 83 1007.0
20260506214852 71 0 0.0 0.0 0.00 0.05 0.05 82 1007.0
20260506214353 71 0 0.0 2.0 0.00 0.05 0.05 83 1007.0
20260506213854 71 0 0.0 2.0 0.00 0.05 0.05 83 1006.9
20260506213330 71 0 0.0 0.0 0.00 0.05 0.05 83 1006.9
20260506212830 71 0 0.0 0.0 0.00 0.05 0.05 82 1006.9
20260506212331 71 0 0.0 0.0 0.00 0.05 0.05 82 1006.6
20260506211429 70 0 0.0 0.0 0.00 0.05 0.05 82 1006.6
20260506210929 70 0 0.0 0.0 0.00 0.05 0.05 83 1006.8
20260506210430 70 0 0.0 0.0 0.00 0.05 0.05 83 1006.8
20260506205929 70 0 0.0 0.0 0.00 0.05 0.05 82 1006.8
20260506205512 70 0 0.0 0.0 0.00 0.05 0.05 82 1007.3
20260506205429 70 0 0.0 0.0 0.00 0.05 0.05 82 1007.3
20260506204930 70 0 0.0 0.0 0.00 0.05 0.05 83 1007.3
20260506204429 70 0 0.0 0.0 0.00 0.05 0.05 82 1007.3
20260506203929 70 0 0.0 0.0 0.00 0.05 0.05 82 1007.3
20260506203430 70 0 0.0 1.0 0.00 0.05 0.05 83 1007.3
20260506202929 70 0 0.0 1.0 0.00 0.05 0.05 84 1007.3
20260506202429 70 0 0.0 1.0 0.00 0.05 0.05 83 1007.4
20260506201929 70 0 0.0 1.0 0.00 0.05 0.05 85 1007.4
20260506201431 70 0 0.0 1.0 0.00 0.05 0.05 84 1007.4
20260506200929 70 0 0.0 1.0 0.00 0.05 0.05 85 1007.4
20260506200429 70 0 0.0 1.0 0.00 0.05 0.05 83 1007.4
20260506195929 70 0 0.0 1.0 0.00 0.05 0.05 84 1007.4
20260506195430 69 0 0.0 0.0 0.00 0.05 0.05 85 1007.0
20260506194932 69 0 0.0 0.0 0.00 0.05 0.05 87 1007.0
20260506194429 68 0 0.0 0.0 0.00 0.05 0.05 85 1007.0
20260506193932 68 0 0.0 2.0 0.00 0.05 0.05 85 1007.5
20260506193429 68 0 0.0 2.0 0.00 0.05 0.05 87 1007.5
20260506192929 67 0 0.0 0.0 0.00 0.05 0.05 88 1007.5
20260506192430 67 0 0.0 0.0 0.00 0.05 0.05 88 1007.4
20260506191929 67 0 0.0 0.0 0.00 0.05 0.05 89 1007.4
20260506191429 66 0 0.0 0.0 0.00 0.05 0.05 89 1007.4
20260506190930 66 0 0.0 0.0 0.00 0.05 0.05 90 1007.5
20260506190244 66 0 0.0 0.0 0.00 0.05 0.05 90 1007.5
20260506185731 66 0 0.0 1.0 0.00 0.05 0.05 91 1007.5
20260506185231 65 0 0.0 1.0 0.00 0.05 0.05 92 1007.5
20260506184731 65 0 0.0 0.0 0.00 0.05 0.05 91 1007.5
20260506184231 65 0 0.0 0.0 0.01 0.05 0.05 92 1007.5
20260506183730 65 0 0.0 0.0 0.01 0.05 0.05 92 1007.5
20260506183239 65 0 0.0 1.0 0.01 0.05 0.05 91 1007.5
20260506182731 65 0 0.0 1.0 0.01 0.05 0.05 91 1007.5
20260506182230 65 0 0.0 0.0 0.01 0.05 0.05 91 1007.3
20260506181736 64 0 0.0 0.0 0.02 0.05 0.05 92 1007.3
20260506181009 64 0 0.0 0.0 0.03 0.05 0.05 92 1007.3
20260506180509 64 0 0.0 0.0 0.04 0.05 0.05 92 1007.6
20260506180008 64 0 0.0 0.0 0.05 0.05 0.05 93 1007.6
20260506175508 64 0 0.0 0.0 0.05 0.05 0.05 93 1007.6
20260506175009 64 0 0.0 0.0 0.05 0.05 0.05 92 1009.0
20260506174515 63 0 0.0 0.0 0.04 0.04 0.04 91 1009.0
20260506174015 63 0 0.0 0.0 0.04 0.04 0.04 91 1009.0
20260506173510 64 0 0.0 0.0 0.04 0.04 0.04 91 1009.0
20260506173013 64 0 0.0 0.0 0.04 0.04 0.04 90 1009.0
20260506172511 64 0 0.0 1.0 0.04 0.04 0.04 88 1009.0
20260506172012 65 0 0.0 1.0 0.03 0.03 0.03 86 1009.4
20260506171511 66 0 0.0 0.0 0.03 0.03 0.03 85 1009.4
20260506171012 66 0 0.0 0.0 0.02 0.02 0.02 83 1009.4
20260506170515 67 0 0.0 0.0 0.01 0.01 0.01 80 1009.5
20260506170010 68 0 0.0 0.0 0.00 0.00 0.00 78 1009.5
20260506165510 68 0 0.0 0.0 0.00 0.00 0.00 76 1009.5
20260506165011 68 0 0.0 0.0 0.00 0.00 0.00 76 1009.2
20260506164510 69 0 0.0 0.0 0.00 0.00 0.00 75 1009.2
20260506164010 69 0 0.0 0.0 0.00 0.00 0.00 74 1009.2
20260506163516 69 0 0.0 0.0 0.00 0.00 0.00 74 1009.1
20260506163014 69 0 0.0 0.0 0.00 0.00 0.00 74 1009.1
20260506162523 69 0 0.0 0.0 0.00 0.00 0.00 73 1009.1
20260506162010 69 0 0.0 0.0 0.00 0.00 0.00 74 1008.9
20260506161511 69 0 0.0 0.0 0.00 0.00 0.00 73 1008.9
20260506161010 69 0 0.0 0.0 0.00 0.00 0.00 72 1008.9
20260506160513 69 0 0.0 0.0 0.00 0.00 0.00 72 1009.0
20260506160012 69 0 0.0 0.0 0.00 0.00 0.00 71 1009.0
20260506155523 69 0 0.0 0.0 0.00 0.00 0.00 72 1009.0
20260506155010 68 0 0.0 0.0 0.00 0.00 0.00 73 1008.5
20260506154511 68 0 0.0 0.0 0.00 0.00 0.00 75 1008.5
20260506154008 68 0 0.0 0.0 0.00 0.00 0.00 77 1008.5
20260506153508 67 0 0.0 0.0 0.00 0.00 0.00 75 1008.0
20260506152810 67 0 0.0 0.0 0.00 0.00 0.00 76 1008.0
20260506152309 67 0 0.0 0.0 0.00 0.00 0.00 77 1008.0
20260506151810 66 0 0.0 0.0 0.00 0.00 0.00 77 1008.0
20260506151310 66 0 0.0 0.0 0.00 0.00 0.00 78 1008.0
20260506150810 66 0 0.0 0.0 0.00 0.00 0.00 78 1008.2
20260506150316 66 0 0.0 0.0 0.00 0.00 0.00 78 1008.2
20260506145809 65 0 0.0 0.0 0.00 0.00 0.00 79 1008.2
20260506145312 65 0 0.0 1.0 0.00 0.00 0.00 79 1008.4
20260506144814 65 0 0.0 1.0 0.00 0.00 0.00 80 1008.4
20260506144309 65 0 0.0 0.0 0.00 0.00 0.00 80 1008.4
20260506143510 64 0 0.0 0.0 0.00 0.00 0.00 79 1008.5
20260506143009 64 0 0.0 0.0 0.00 0.00 0.00 80 1008.5
20260506142509 64 0 0.0 0.0 0.00 0.00 0.00 79 1008.5
20260506142009 64 0 0.0 0.0 0.00 0.00 0.00 80 1008.5
20260506141512 64 0 0.0 0.0 0.00 0.00 0.00 79 1008.5
20260506141009 64 0 0.0 0.0 0.00 0.00 0.00 79 1008.5
20260506140516 64 0 0.0 0.0 0.00 0.00 0.00 80 1008.4
20260506140009 64 0 0.0 0.0 0.00 0.00 0.00 80 1008.4
20260506135509 64 0 0.0 0.0 0.00 0.00 0.00 80 1008.4
20260506135009 63 0 0.0 0.0 0.00 0.00 0.00 80 1008.0
20260506134509 63 0 0.0 0.0 0.00 0.00 0.00 80 1008.0
20260506134016 63 0 0.0 0.0 0.00 0.00 0.00 80 1008.0
20260506133509 63 0 0.0 1.0 0.00 0.00 0.00 80 1008.3
20260506133011 63 0 0.0 1.0 0.00 0.00 0.00 80 1008.3
20260506132009 63 0 0.0 1.0 0.00 0.00 0.00 80 1008.4
20260506131509 63 0 0.0 1.0 0.00 0.00 0.00 79 1008.4
20260506131009 63 0 0.0 1.0 0.00 0.00 0.00 80 1008.4
20260506130512 63 0 0.0 0.0 0.00 0.00 0.00 80 1007.8
20260506130009 63 0 0.0 0.0 0.00 0.00 0.00 79 1007.8
20260506125509 63 0 0.0 0.0 0.00 0.00 0.00 79 1007.8
20260506125009 63 0 0.0 0.0 0.00 0.00 0.00 79 1008.4
20260506124512 62 0 0.0 0.0 0.00 0.00 0.00 80 1008.4
20260506124019 62 0 0.0 0.0 0.00 0.00 0.00 80 1008.4
20260506123509 62 0 0.0 0.0 0.00 0.00 0.00 80 1008.7
20260506123009 62 0 0.0 0.0 0.00 0.00 0.00 80 1008.7
20260506122336 62 0 0.0 0.0 0.00 0.00 0.00 80 1008.9
20260506121831 62 0 0.0 2.0 0.00 0.00 0.00 80 1008.9
20260506121331 62 0 0.0 2.0 0.00 0.00 0.00 79 1008.9
20260506120829 62 0 0.0 0.0 0.00 0.00 0.00 79 1008.7
20260506120326 62 0 0.0 0.0 0.00 0.00 0.00 79 1008.7
20260506115827 62 0 0.0 0.0 0.00 0.00 0.00 79 1008.7
20260506115327 62 0 0.0 0.0 0.00 0.00 0.00 79 1008.5
20260506114826 62 0 0.0 0.0 0.00 0.00 0.00 79 1008.5
20260506113856 61 0 0.0 0.0 0.00 0.00 0.00 79 1008.6
20260506113356 61 0 0.0 0.0 0.00 0.00 0.00 79 1008.6
20260506112856 61 0 0.0 0.0 0.00 0.00 0.00 79 1008.6
20260506112356 61 0 0.0 0.0 0.00 0.00 0.00 79 1008.3
20260506111856 61 0 0.0 0.0 0.00 0.00 0.00 79 1008.3
20260506111356 61 0 0.0 0.0 0.00 0.00 0.00 79 1008.3
20260506110856 61 0 0.0 0.0 0.00 0.00 0.00 79 1008.0
20260506110515 61 0 0.0 1.0 0.00 0.00 0.00 79 1008.0
20260506110356 61 0 0.0 1.0 0.00 0.00 0.00 79 1008.0
20260506110020 61 0 0.0 1.0 0.00 0.00 0.00 79 1008.0
20260506105856 61 0 0.0 1.0 0.00 0.00 0.00 79 1008.0
20260506105509 61 0 0.0 0.0 0.00 0.00 0.00 79 1007.6
20260506105356 61 0 0.0 0.0 0.00 0.00 0.00 79 1007.6
20260506105112 61 0 0.0 0.0 0.00 0.00 0.00 79 1007.6
20260506104856 61 0 0.0 0.0 0.00 0.00 0.00 79 1007.6
20260506104356 61 0 0.0 0.0 0.00 0.00 0.00 79 1007.6
20260506104035 61 0 0.0 0.0 0.00 0.00 0.00 79 1007.4
20260506103856 61 0 0.0 0.0 0.00 0.00 0.00 79 1007.4
20260506103442 61 0 0.0 0.0 0.00 0.00 0.00 79 1007.4
20260506103358 61 0 0.0 0.0 0.00 0.00 0.00 79 1007.4
20260506102934 61 0 0.0 0.0 0.00 0.00 0.00 79 1007.4
20260506102858 61 0 0.0 0.0 0.00 0.00 0.00 79 1007.4
20260506102507 61 0 0.0 0.0 0.00 0.00 0.00 78 1007.5
20260506102356 61 0 0.0 0.0 0.00 0.00 0.00 78 1007.5
20260506101856 61 0 0.0 0.0 0.00 0.00 0.00 79 1007.5
20260506101356 61 0 0.0 0.0 0.00 0.00 0.00 79 1007.5
20260506100856 61 0 0.0 0.0 0.00 0.00 0.00 78 1007.6
20260506100356 61 0 0.0 0.0 0.00 0.00 0.00 78 1007.6
20260506095856 61 0 0.0 0.0 0.00 0.00 0.00 78 1007.6
20260506095355 61 0 0.0 0.0 0.00 0.00 0.00 78 1007.6
20260506094856 61 0 0.0 0.0 0.00 0.00 0.00 77 1007.6
20260506094356 61 0 0.0 0.0 0.00 0.00 0.00 77 1007.6
20260506093856 61 0 0.0 0.0 0.00 0.00 0.00 77 1007.6
20260506093402 61 0 0.0 0.0 0.00 0.00 0.00 77 1007.6
20260506092855 62 0 0.0 1.0 0.00 0.00 0.00 77 1007.6
20260506092356 62 0 0.0 1.0 0.00 0.00 0.00 77 1007.8
20260506091858 62 0 0.0 0.0 0.00 0.00 0.00 77 1007.8
20260506091356 62 0 0.0 1.0 0.00 0.00 0.00 77 1007.8
20260506090857 62 0 0.0 1.0 0.00 0.00 0.00 76 1008.0
20260506090356 62 0 0.0 0.0 0.00 0.00 0.00 76 1008.0
20260506085856 62 0 0.0 0.0 0.00 0.00 0.00 76 1008.0
20260506085356 62 0 0.0 0.0 0.00 0.00 0.00 76 1008.3
20260506084855 62 0 0.0 0.0 0.00 0.00 0.00 76 1008.3
20260506084356 62 0 0.0 0.0 0.00 0.00 0.00 76 1008.3
20260506083856 62 0 0.0 1.0 0.00 0.00 0.00 75 1008.5
20260506083356 62 0 0.0 1.0 0.00 0.00 0.00 75 1008.5
20260506082856 62 0 0.0 0.0 0.00 0.00 0.00 75 1008.5
20260506082355 62 0 0.0 0.0 0.00 0.00 0.00 75 1008.5
20260506081856 63 0 0.0 1.0 0.00 0.00 0.00 75 1008.5
20260506081356 63 0 0.0 1.0 0.00 0.00 0.00 75 1008.5
20260506080855 63 0 0.0 1.0 0.00 0.00 0.00 75 1008.0
20260506080356 63 0 0.0 1.0 0.00 0.00 0.00 75 1008.0
20260506073503 63 0 0.0 1.0 0.00 0.00 0.00 75 1008.5
20260506073001 63 0 0.0 0.0 0.00 0.00 0.00 75 1008.5
20260506072500 63 0 0.0 1.0 0.00 0.00 0.00 75 1008.4
20260506072001 63 0 0.0 1.0 0.00 0.00 0.00 75 1008.4
20260506071500 63 0 0.0 0.0 0.00 0.00 0.00 75 1008.4
20260506071001 63 0 0.0 0.0 0.00 0.00 0.00 75 1007.8
20260506070503 63 0 0.0 0.0 0.00 0.00 0.00 75 1007.8
20260506062225 64 0 0.0 0.0 0.00 0.00 0.00 73 1008.6
20260506061329 64 0 0.0 0.0 0.00 0.00 0.00 72 1008.6
20260506060829 64 0 0.0 0.0 0.00 0.00 0.00 72 1008.9
20260506060329 64 0 0.0 0.0 0.00 0.00 0.00 72 1008.9